www.pogodaiklimat.ru

Погода и климат >> Архив погоды >> Россия >> Камчатский край >> Сосновка


ПОГОДА в Сосновке

  • Прогноз погоды в Сосновке
  • Монитор погоды в Сосновке

АРХИВ ПОГОДЫ в Сосновке

Время (UTC), дата Ветер
(напр.,м/с)
 
Видим.   Явления Облачность Т
(С)
Тd
(С)
f
(%)
Тe
(С)
Тes
(С)
Комфортность P
(гПа)
Po
(гПа)
Тmin
(С)
Tmax
(С)
R
(мм)
R24
(мм)
S
(см)
09 15.02 З 4
{12}
50 км позёмок 10/1 1000 м
[Sc Cs]
-7.0 -17.7 42 -13 -13 985.0 980.0 -4.7
12 15.02 З 4 50 км {метель} 10/1 1000 м
[Sc Cs]
-7.7 -18.3 42 -14 -14 984.5 979.4
15 15.02 З 5-10
{10}
50 км позёмок 9/0
[Ci fib]
-8.4 -18.9 42 -16 -16 985.4 980.3
18 15.02 З 3
{10}
50 км позёмок 6/3 1000 м
[Sc Ci fib]
-8.7 -18.6 45 -14 -14 985.5 980.4
21 15.02 З 3 50 км 4/3 1000 м
[Sc Ci fib]
-9.6 -20.4 41 -15 -15 984.8 979.7 -10.9 85
00 16.02 ЮЗ 4 50 км 8/3 1000 м
[Sc Ac trans Ci fib]
-6.0 -18.7 36 -12 -11 985.3 980.3 -11.5
03 16.02 З 8-10
{10}
50 км позёмок 8/1 1000 м
[Sc Ac trans Ci fib]
-5.4 -16.6 41 -14 -13 985.2 980.2
06 16.02 З 3
{10}
50 км {метель} 9/3 1000 м
[Sc Ac trans Ci fib]
-6.7 -17.8 41 -12 -12 987.1 982.1
09 16.02 З 4 50 км 10/3 1000 м
[Sc Ac trans Ci fib]
-8.4 -19.0 42 -15 -15 989.1 984.0 -5.1
12 16.02 З 3 50 км 10/4 1000 м
[Sc Ac trans Ci fib]
-9.5 -18.7 47 -15 -15 989.1 984.0
15 16.02 З 3 50 км 10/3 1000 м
[Sc Ac und]
-12.0 -18.2 60 -18 -18 990.5 985.3
18 16.02 З 1 50 км 9/3 1000 м
[Sc Ac trans]
-13.4 -17.7 70 -16 -16 990.5 985.3
21 16.02 З 1 50 км 9/3 1000 м
[Sc Ac trans Ci fib]
-14.7 -18.1 75 -17 -17 990.8 985.5 -14.9 85
00 17.02 штиль 0 50 км 9/3 1000 м
[Sc Ac trans Ci fib]
-9.2 -15.4 61 -10 -8 991.9 986.7
03 17.02 З 2 50 км 9/3 1000 м
[Sc Ac trans Ci fib]
-7.0 -18.3 40 -11 -11 991.8 986.7
06 17.02 ЮЗ 2 50 км 3/3 1000 м
[Sc]
-6.8 -18.1 40 -11 -10 993.1 988.0
09 17.02 штиль 0 50 км 4/0
[Ci fib]
-13.6 -19.7 60 -14 -14 991.9 986.7 -3.9
12 17.02 З 1 50 км ясно -17.6 -21.9 69 -20 -20 993.3 988.0
15 17.02 штиль 0 50 км ясно -19.8 -23.1 75 -20 -20 994.6 989.3
18 17.02 штиль 0 50 км ясно -21.4 -23.2 85 -21 -21 996.1 990.7
21 17.02 штиль 0 50 км 1/0
[Ac trans]
-22.0 -23.3 89 -22 -22 998.8 993.4 -22.0 84
00 18.02 штиль 0 50 км ясно -13.7 -19.8 60 -14 -9 1001.3 996.0
03 18.02 ЮВ 1 50 км 1/1 1000 м
[Sc]
-5.9 -17.0 41 -8 -4 1001.1 996.0
06 18.02 штиль 0 50 км ясно -6.0 -20.4 31 -6 -6 1002.4 997.3
09 18.02 штиль 0 50 км ясно -13.4 -19.5 60 -13 -13 1004.0 998.7 -5.8
12 18.02 штиль 0 50 км ясно -15.7 -20.8 65 -16 -16 1005.3 1000.0
15 18.02 штиль 0 50 км ясно -18.2 -21.5 75 -18 -18 1006.7 1001.3
18 18.02 штиль 0 50 км 1/0
[Ci fib]
-19.6 -22.2 80 -20 -20 1008.1 1002.7
21 18.02 штиль 0 50 км 3/0
[Ci fib]
-20.5 -21.1 95 -21 -20 1009.0 1003.6 -20.6 84
00 19.02 В 1 50 км 8/1 1000 м
[Sc Ac trans Ci fib]
-10.3 -16.6 60 -12 -10 1009.9 1004.7
03 19.02 ЮЗ 1 50 км 9/3 1000 м
[Sc Ac trans Ci fib]
-2.7 -15.0 38 -4 -4 1010.4 1005.3
06 19.02 ЮВ 1 50 км 8/3 1000 м
[Sc Ac trans Ci fib]
-3.6 -15.5 39 -5 -5 1010.4 1005.3
09 19.02 В 1 50 км 9/0
[Ac trans Ci fib]
-11.3 -16.6 65 -13 -13 1012.0 1006.7 -2.7
12 19.02 З 1 50 км 3/0
[Ci fib]
-14.8 -19.0 70 -17 -17 1012.0 1006.7
15 19.02 штиль 0 50 км ясно -16.1 -19.5 75 -16 -16 1012.1 1006.7
18 19.02 З 1 50 км ясно -19.6 -22.2 80 -23 -23 1013.4 1008.0
21 19.02 З 1 50 км 9/1 1000 м
[Sc Ac trans Ci fib]
-20.6 -21.2 95 -24 -24 1011.7 1006.2 -21.0 84
00 20.02 В 1 50 км 3/0
[Ci fib]
-14.0 -17.5 75 -16 -12 1011.6 1006.2 -21.9
03 20.02 штиль 0 50 км 1/1 1000 м
[Sc]
-3.9 -16.4 37 -4 0 1010.4 1005.3
06 20.02 штиль 0 50 км ясно -4.6 -17.7 35 -5 -5 1010.4 1005.3
09 20.02 З 1 50 км ясно -14.3 -20.3 60 -17 -17 1012.0 1006.7 -3.0
12 20.02 штиль 0 50 км ясно -17.1 -22.1 65 -17 -17 1012.1 1006.7
15 20.02 штиль 0 50 км ясно -19.3 -21.2 85 -19 -19 1010.7 1005.3
18 20.02 штиль 0 50 км ясно -21.3 -22.5 90 -21 -21 1010.8 1005.3
21 20.02 штиль 0 50 км ясно -23.2 -23.8 95 -23 -23 1008.9 1003.4 -23.5 84
00 21.02 штиль 0 50 км ясно -15.1 -19.3 70 -15 -10 1007.4 1002.1 -23.7
03 21.02 штиль 0 50 км 6/0
[Ci fib]
-5.9 -17.6 39 -6 -4 1006.4 1001.3
06 21.02 З 3 50 км ясно -7.7 -18.4 42 -13 -13 1005.2 1000.0
09 21.02 СЗ 2 50 км 3/0
[Ci fib]
-13.9 -22.0 50 -19 -19 1006.6 1001.3 -5.8
12 21.02 ЮЗ 1 50 км ясно -17.2 -22.2 65 -20 -20 1006.7 1001.3
15 21.02 С 1 50 км 2 балла -19.3 -23.4 70 -22 -22 1005.4 1000.0
18 21.02 ЮЗ 1 50 км ясно -17.2 -22.2 65 -20 -20 1006.7 1001.3
21 21.02 З 1 50 км ясно -20.5 -22.4 85 -24 -23 1004.6 999.2 -21.9 84
00 22.02 ЮВ 1 50 км ясно -10.9 -19.3 50 -13 -9 1005.2 1000.0
03 22.02 З 4 50 км 9 баллов -7.5 -18.5 41 -14 -13 1002.4 997.3
06 22.02 З 2 50 км 9 баллов -7.8 -19.3 39 -12 -12 1002.4 997.3

 

Местоположение метеостанции Сосновка (Камчатский край, Россия): широта 53.08 долгота 158.30 высота над уровнем моря 40 м.

В архиве по умолчанию представлена погода в Сосновке за последнюю неделю. Архивные данные за месяц целиком и за предыдущие месяцы, начиная с января 2011 года, Вы можете получить, выбрав интересующий диапазон дат из раскрывающегося списка и нажав кнопку "Ввод!".


*Определитесь, кто Вы:
робот инопланетянин человек

Внимание! Время в таблицах - всемирное. Для получения местного времени необходимо прибавить поправку, которая равна 12 ч.

Смотрите также архив погоды в соседних городах и на ближайших метеорологических станциях:

Погода в Петропавловск-Камч. 2 (Камчатский край, Россия) (13 км)
Погода в Петропавловск-Камчатском (Камчатский край, Россия) (31 км)
Погода в Петропавловском Маяке (Камчатский край, Россия) (35 км)
Погода в Начиках (Камчатский край, Россия) (40 км)
Погода в Пущино (Камчатский край, Россия) (124 км)
Погода в Большерецке (Камчатский край, Россия) (137 км)
Погода в Водопадной (Камчатский край, Россия) (142 км)
Погода в Семячике (Камчатский край, Россия) (157 км)
Погода в Мильково (Камчатский край, Россия) (178 км)
Погода в Соболево (Камчатский край, Россия) (208 км)

Пояснения к столбцам:

Ветер - указаны скорость ветра в м/с - средняя за 10 мин, порывы в срок и между сроками (в фигурных скобках) и направление, откуда дует ветер: С - северный, СВ - северо-восточный, В - восточный, ЮВ - юго-восточный, Ю - южный, ЮЗ - юго-западный, З - западный, СЗ - северо-западный.
Видимость - горизонтальная дальность видимости в метрах или километрах. При видимости от 1 до 10 км при отсутствии осадков обычно наблюдается дымка, при ухудшении видимости до 1 км и менее - туман. В сухую погоду видимость может ухудшаться дымом, пылью или мглою.
Явления - указаны атмосферные явления, наблюдавшиеся в срок или в последний час перед сроком; фигурными скобками обозначены явления, наблюдавшиеся между сроками (за 1-3 часа до срока); квадратными скобками обозначены град или гололедные отложения с указанием их диаметра в мм.
Облачность - указаны через наклонную черту общая и нижняя облачность в баллах и высота нижней границы облаков в метрах; квадратными скобками обозначены формы облаков: Ci - перистые, Cs - перисто-слоистые, Cc - перисто-кучевые, Ac - высококучевые, As - высокослоистые, Sc - слоисто-кучевые, Ns - слоисто-дождевые, Cu - кучевые, Cb - кучево-дождевые. Подробнее классификацию облаков см. в Атласе облаков (PDF).
T - Температура воздуха - температура, измеренная на высоте 2 м над землей.
Td - Температура точки росы - температура, при понижении до которой содержащийся в воздухе водяной пар достигнет насыщения.
f - Относительная влажность воздуха - влажноcть воздуха, измеренная на высоте 2 м над землей.
Te - Эффективная температура - температура, которую ощущает одетый по сезону человек в тени. Характеристика душности погоды. При расчете учитывается влияние влажности воздуха и скорости ветра на теплоощущения человека.
Tes - Эффективная температура на солнце - температура, которую ощущает человек, с поправкой на солнечный нагрев. Характеристика знойности погоды. Зависит от высоты солнца над горизонтом, облачности и скорости ветра. Ночью, в пасмурную погоду, а также при ветре 12 м/с и более поправка равна нулю.
P - Атмосферное давление - приведенное к уровню моря атмосферное давление.
Po - Атмосферное давление - измеренное на уровне метеостанции атмосферное давление.
Tmin - Минимальная температура - минимум температуры воздуха на высоте 2 м над землей.
Tmax - Максимальная температура - максимум температуры воздуха на высоте 2 м над землей.
R - Количество осадков - Количество выпавших осадков за период времени, мм. При наведении курсора мыши на число - период времени, за который выпало указанное количество осадков.
R24 - Количество осадков - Количество выпавших осадков за 24 часа, мм.
S - Снежный покров - Высота снежного покрова, см. При наведении курсора мыши на число - состояние снежного покрова и степень покрытия местности в баллах.